CANAVERAL NM East of Cape Canaveral, FL (41009)

Conditions for Saturday

Daily
Weekly
Monthly
Marine Data Graph

Current Weather/Wave Observations

Air Temperature: 78° F
Humidity: 72
Wind direction (W Dir): West (265 - 274 Degrees)
Wind Speed (W Spd): 9.7 kts (11.2 mph)
Wind Gust (W Spd): 11.7 kts (13.4 mph)
Atmospheric Pressure (AP): 30.07 in

Updated: 7:30 PM EDT on August 17, 2019

Marine & Boating Location Search

Enter a coastal zip code for marine weather.

General Information

Location: 28.522 North -80.188 West
Buoy Type: 3-meter discus buoy
Buoy Hull: 3D86
Payload: AMPS payload
Owned by: NDBC
Windspeed: Measured by obtained from anemometer
Sea Surface: Measured by Intake

Weather and Wave Data

Time Temp Humidity Wind Dominant Wave Wind Wave Wave Swell Pressure
  Air
(°F)
Water
(°F)
  Dir Speed
(kts)
Speed
(mph)
Period
(sec)
Height
(ft)
Range
(ft)
Period
(sec)
Height
(ft)
Range
(ft)
Period
(sec)
Height
(ft)
Range
(ft)
Atmo.
(in)
Tend.
(in)
20:00 80 83 78 South 9.7 11.2 - - - - - - 30.04 +0.01
20:10 80 83 79 South 11.7 13.4 - - - - - - 30.05 -
20:20 80 83 77 South 11.7 13.4 - - - - - - 30.05 -
20:30 80 83 77 South 11.7 13.4 - - - - - - 30.05 -
20:40 80 83 77 South 11.7 13.4 - - - - - - 30.05 -
20:50 81 83 75 South 11.7 13.4 7 1.97 exactly 2.0 3 1.64 0.82 - 2.46 7 1.64 0.82 - 2.46 30.05 -
21:00 81 83 76 South 11.7 13.4 - - - - - - 30.05 +0.01
21:10 81 83 77 South 13.6 15.7 - - - - - - 30.05 -
21:30 81 83 78 South 13.6 15.7 - - - - - - 30.06 -
21:40 81 83 77 South 11.7 13.4 - - - - - - 30.06 -
22:20 81 83 75 South 11.7 13.4 - - - - - - 30.06 -
22:30 81 83 77 South 13.6 15.7 - - - - - - 30.07 -
22:40 82 83 75 South 13.6 15.7 - - - - - - 30.07 -
22:50 82 83 75 South 11.7 13.4 3 1.97 exactly 2.0 3 1.64 0.82 - 2.46 8 1.64 0.82 - 2.46 30.08 -
23:00 81 83 80 South 11.7 13.4 - - - - - - 30.08 +0.03
23:20 81 83 75 South 11.7 13.4 - - - - - - 30.07 -
23:30 81 83 77 South 11.7 13.4 - - - - - - 30.07 -
23:40 81 83 78 South 9.7 11.2 - - - - - - 30.07 -
23:50 81 83 79 South 11.7 13.4 3 1.97 exactly 2.0 3 1.64 0.82 - 2.46 7 1.64 0.82 - 2.46 30.07 -
00:10 82 83 73 SW 11.7 13.4 - - - - - - 30.07 -
00:20 82 83 72 SW 13.6 15.7 - - - - - - 30.07 -
00:30 82 83 73 SW 13.6 15.7 - - - - - - 30.07 -
00:40 82 83 73 SW 11.7 13.4 - - - - - - 30.08 -
00:50 81 83 75 SW 11.7 13.4 7 1.97 exactly 2.0 3 1.64 0.82 - 2.46 7 1.64 0.82 - 2.46 30.08 -
01:10 82 83 61 SW 11.7 13.4 - - - - - - 30.07 -
01:20 82 83 62 SW 11.7 13.4 - - - - - - 30.07 -
01:30 82 83 64 SW 9.7 11.2 - - - - - - 30.07 -
01:40 82 82 69 SW 9.7 11.2 - - - - - - 30.07 -
01:50 81 82 75 SW 9.7 11.2 7 2.30 exactly 2.3 4 1.64 0.82 - 2.46 7 1.64 0.82 - 2.46 30.07 -
02:00 81 82 73 SW 13.6 15.7 - - - - - - 30.07 -
02:10 81 82 71 SW 13.6 15.7 - - - - - - 30.07 -
02:20 81 82 69 SW 11.7 13.4 - - - - - - 30.07 -
02:30 81 82 68 SW 11.7 13.4 - - - - - - 30.06 -
02:50 81 82 67 SW 11.7 13.4 7 2.30 exactly 2.3 3 1.64 0.82 - 2.46 7 1.64 0.82 - 2.46 30.06 -
03:10 81 81 66 SW 11.7 13.4 - - - - - - 30.06 -
03:20 81 81 66 SW 11.7 13.4 - - - - - - 30.06 -
03:40 80 81 69 SW 11.7 13.4 - - - - - - 30.06 -
04:10 80 81 71 SSW 9.7 11.2 - - - - - - 30.06 -
04:20 80 81 70 SSW 11.7 13.4 - - - - - - 30.06 -
04:30 81 81 68 SSW 11.7 13.4 - - - - - - 30.06 -
04:40 81 81 69 SSW 11.7 13.4 - - - - - - 30.05 -
05:00 80 81 72 SSW 9.7 11.2 - - - - - - 30.04 -0.03
05:10 80 81 71 South 9.7 11.2 - - - - - - 30.04 -
05:20 80 81 71 South 9.7 11.2 - - - - - - 30.04 -
05:30 81 81 67 SSW 9.7 11.2 - - - - - - 30.04 -
05:50 81 81 69 South 9.7 11.2 7 1.97 exactly 2.0 3 1.64 0.82 - 2.46 7 1.64 0.82 - 2.46 30.05 -
06:10 80 81 71 South 9.7 11.2 - - - - - - 30.05 -
06:20 80 81 70 South 7.8 8.9 - - - - - - 30.05 -
07:20 81 81 70 South 5.8 6.7 - - - - - - 30.06 -
07:40 81 81 68 South 5.8 6.7 - - - - - - 30.06 -
07:50 81 81 68 South 5.8 6.7 6 1.64 exactly 1.6 3 1.64 0.82 - 2.46 6 1.64 0.82 - 2.46 30.07 -
08:10 81 81 67 South 7.8 8.9 - - - - - - 30.08 -
08:30 81 82 67 South 7.8 8.9 - - - - - - 30.09 -
08:40 81 82 68 South 7.8 8.9 - - - - - - 30.09 -
08:50 81 82 67 South 7.8 8.9 7 1.97 exactly 2.0 - - - 7 1.64 0.82 - 2.46 30.09 -
09:00 82
-
64 South 7.8 8.9 - - - - - - 30.09 +0.04
09:20 82 82 66 South 9.7 11.2 - - - - - - 30.09 -
09:30 82 82 65 South 9.7 11.2 - - - - - - 30.08 -
09:40 82 82 66 South 9.7 11.2 - - - - - - 30.09 -
10:00 82 82 66 South 7.8 8.9 - - - - - - 30.09 +0.03
10:10 82 82 66 South 7.8 8.9 - - - - - - 30.09 -
10:20 82 82 66 South 7.8 8.9 - - - - - - 30.09 -
10:30 82 82 66 South 7.8 8.9 - - - - - - 30.09 -
10:50 82 82 68 South 7.8 8.9 7 1.64 exactly 1.6 - - - 7 1.64 0.82 - 2.46 30.10 -
11:10 82 82 65 South 7.8 8.9 - - - - - - 30.10 -
11:20 82 82 65 SSW 7.8 8.9 - - - - - - 30.11 -
11:30 82 82 64 SSW 7.8 8.9 - - - - - - 30.11 -
11:40 83 82 61 SSW 5.8 6.7 - - - - - - 30.11 -
12:10 83 82 61 South 5.8 6.7 - - - - - - 30.12 -
12:20 83 82 62 South 7.8 8.9 - - - - - - 30.12 -
12:30 83 83 62 South 7.8 8.9 - - - - - - 30.12 -
12:50 83 83 60 SSW 5.8 6.7 7 1.64 exactly 1.6 - - - 7 1.64 0.82 - 2.46 30.12 -
13:10 83 83 56 South 5.8 6.7 - - - - - - 30.12 -
13:20 83 83 56 South 5.8 6.7 - - - - - - 30.11 -
13:30 83 83 57 South 3.9 4.5 - - - - - - 30.11 -
13:40 83 83 58 South 5.8 6.7 - - - - - - 30.11 -
14:10 84 83 53 South 3.9 4.5 - - - - - - 30.09 -
14:20 84 83 55 South 3.9 4.5 - - - - - - 30.09 -
14:30 84 83 53 South 1.9 2.2 - - - - - - 30.09 -
14:40 84 83 54 South 1.9 2.2 - - - - - - 30.09 -
14:50 84 84 54 SE 1.9 2.2 7 1.31 exactly 1.3 - - - 7 1.64 0.82 - 2.46 30.08 -
15:20 84 83 55 ESE 1.9 2.2 - - - - - - 30.06 -
15:40 85 83 55 ESE 3.9 4.5 - - - - - - 30.05 -
15:50 85 84 57 SE 3.9 4.5 6 1.31 exactly 1.3 - - - 6 1.64 0.82 - 2.46 30.05 -
16:10 85 83 61 SE 5.8 6.7 - - - - - - 30.05 -
16:20 85 83 61 SE 5.8 6.7 - - - - - - 30.05 -
16:30 85 83 64 SE 5.8 6.7 - - - - - - 30.05 -
16:40 85 83 64 SE 7.8 8.9 - - - - - - 30.05 -
16:50 85 83 65 SE 7.8 8.9 9 1.31 exactly 1.3 - - - 9 1.64 0.82 - 2.46 30.06 -
17:00 85 83 65 SE 5.8 6.7 - - - - - - 30.06 -0.04
17:10 85 83 66 SE 7.8 8.9 - - - - - - 30.06 -
17:30 85 84 64 SSE 7.8 8.9 - - - - - - 30.06 -
18:10 80 83 69 West 15.6 17.9 - - - - - - 30.07 -
18:20 78 84 77 WSW 17.5 20.1 - - - - - - 30.08 -
18:30 77 83 82 WSW 23.3 26.8 - - - - - - 30.09 -
18:40 75 83 85 West 15.6 17.9 - - - - - - 30.06 -
18:50 75 83 85 West 11.7 13.4 2 1.97 exactly 2.0 3 1.64 0.82 - 2.46 7 1.64 0.82 - 2.46 30.06 -
19:00 76 83 81 West 11.7 13.4 - - - - - - 30.06 +0.01
19:10 76 83 80 West 9.7 11.2 - - - - - - 30.06 -
19:20 77 83 76 West 7.8 8.9 - - - - - - 30.07 -
19:30 78 82 72 West 9.7 11.2 - - - - - - 30.07 -

Detailed Wave Spectra

Time Water Depth Wave Height Spectral Peak Period Average Wave Period Sampling Interval Wave Record
22:00 138 ft 2.20 ft 6.7 sec 3.6 sec 0.6 sec 2400 sec
00:00 138 ft 1.97 ft 3.3 sec 3.5 sec 0.6 sec 2400 sec
01:00 138 ft 2.03 ft 6.7 sec 3.8 sec 0.6 sec 2400 sec
03:00 138 ft 2.26 ft 7.1 sec 3.6 sec 0.6 sec 2400 sec
04:00 138 ft 2.03 ft 6.7 sec 3.8 sec 0.6 sec 2400 sec
06:00 138 ft 1.97 ft 6.7 sec 3.9 sec 0.6 sec 2400 sec
07:00 138 ft 1.80 ft 6.7 sec 4.1 sec 0.6 sec 2400 sec
11:00 138 ft 1.64 ft 6.7 sec 4.9 sec 0.6 sec 2400 sec
12:00 138 ft 1.71 ft 6.7 sec 5.1 sec 0.6 sec 2400 sec
13:00 138 ft 1.74 ft 6.7 sec 5.5 sec 0.6 sec 2400 sec
14:00 138 ft 1.35 ft 6.3 sec 5.4 sec 0.6 sec 2400 sec
15:00 138 ft 1.35 ft 6.7 sec 5.7 sec 0.6 sec 2400 sec
16:00 138 ft 1.48 ft 6.3 sec 5.6 sec 0.6 sec 2400 sec